Weather History for Morrisville, VT

Change the Weather History Date:

Tuesday, November 6, 2012

  Actual Average Record
Temperature  
Mean Temperature 28 °F 39 °F  
Max Temperature 37 °F 48 °F 63 °F (2008)
Min Temperature 19 °F 30 °F 17 °F (2011)
Degree Days  
Heating Degree Days 37 26  
Month to date heating degree days 167 153  
Since 1 July heating degree days 895 1084  
Cooling Degree Days 0 0  
Month to date cooling degree days 0 0  
Year to date cooling degree days 408 265  
Moisture  
Dew Point 16 °F    
Average Humidity 61    
Maximum Humidity 84    
Minimum Humidity 37    
Precipitation  
Precipitation 0.00 in 0.10 in 0.50 in (2007)
Month to date precipitation 0.05 0.59  
Year to date precipitation 18.19 30.83  
Sea Level Pressure  
Sea Level Pressure 30.23 in    
Wind  
Wind Speed 1 mph (NNW)    
Max Wind Speed 10 mph    
Max Gust Speed 17 mph    
Visibility 10 miles    
Events      
T = Trace of Precipitation, MM = Missing Value Source: NWS Daily Summary

Daily Weather History Graph

Daily Weather History Graph

Search for Another Location

Airport:

Trip Planner

Search our weather history database for the weather conditions in past years. The results will help you decide how hot, cold, wet, or windy it might be!

Date:

Astronomy

Nov. 06, 2012 Rise Set
Actual Time 6:35 AM EST 4:32 PM EST
Civil Twilight 6:04 AM EST 5:03 PM EST
Nautical Twilight 5:29 AM EST 5:37 PM EST
Astronomical Twilight 4:55 AM EST 6:11 PM EST
Moon 11:11 PM EST (11/6) 12:24 PM EST (11/6)
Length of Visible Light 10h 58m
Length of Day
9h 56m
Waning Gibbous, 53% of the Moon is Illuminated
Nov 6
Waning Gibbous
Nov 6
Last Quarter
Nov 13
New
Nov 20
First Quarter
Nov 28
Full

Hourly Weather History & Observations

Time (EST) Temp. Windchill Dew Point Humidity Pressure Visibility Wind Dir Wind Speed Gust Speed Precip Events Conditions
12:54 AM 30.0 °F - 16.0 °F 56% 30.15 in 10.0 mi Calm Calm - N/A   Overcast
1:54 AM 30.0 °F 23.2 °F 14.0 °F 51% 30.16 in 10.0 mi NW 6.9 mph - N/A   Overcast
2:54 AM 28.9 °F 23.9 °F 12.9 °F 51% 30.17 in 10.0 mi WNW 4.6 mph - N/A   Overcast
3:54 AM 27.0 °F - 14.0 °F 58% 30.19 in 10.0 mi Calm Calm - N/A   Overcast
4:54 AM 26.1 °F 19.4 °F 14.0 °F 60% 30.20 in 10.0 mi NW 5.8 mph - N/A   Clear
5:54 AM 24.1 °F - 12.9 °F 62% 30.22 in 10.0 mi Calm Calm - N/A   Clear
6:54 AM 21.9 °F - 14.0 °F 72% 30.23 in 10.0 mi Calm Calm - N/A   Clear
7:54 AM 26.1 °F - 16.0 °F 66% 30.25 in 10.0 mi Calm Calm - N/A   Clear
8:54 AM 28.9 °F - 14.0 °F 54% 30.25 in 10.0 mi Calm Calm - N/A   Clear
9:54 AM 33.1 °F - 15.1 °F 48% 30.25 in 10.0 mi Calm Calm - N/A   Clear
10:54 AM 34.0 °F - 14.0 °F 44% 30.25 in 10.0 mi Calm Calm - N/A   Overcast
11:54 AM 36.0 °F 30.3 °F 15.1 °F 43% 30.24 in 10.0 mi North 6.9 mph - N/A   Overcast
12:54 PM 36.0 °F - 15.1 °F 43% 30.23 in 10.0 mi Calm Calm - N/A   Mostly Cloudy
1:54 PM 37.0 °F 34.5 °F 14.0 °F 39% 30.22 in 10.0 mi North 3.5 mph - N/A   Clear
2:54 PM 36.0 °F 32.1 °F 15.1 °F 43% 30.22 in 10.0 mi North 4.6 mph - N/A   Clear
3:54 PM 33.1 °F - 17.1 °F 52% 30.22 in 10.0 mi Calm Calm - N/A   Clear
4:54 PM 28.9 °F - 18.0 °F 64% 30.23 in 10.0 mi Calm Calm - N/A   Clear
5:54 PM 28.0 °F - 18.0 °F 66% 30.24 in 10.0 mi Calm Calm - N/A   Clear
6:54 PM 27.0 °F - 19.0 °F 72% 30.25 in 10.0 mi Calm Calm - N/A   Clear
7:54 PM 25.0 °F - 19.0 °F 78% 30.26 in 10.0 mi Calm Calm - N/A   Clear
8:54 PM 23.0 °F - 17.1 °F 78% 30.27 in 10.0 mi Calm Calm - N/A   Clear
9:54 PM 19.9 °F - 16.0 °F 85% 30.26 in 10.0 mi Calm Calm - N/A   Clear
10:54 PM 21.0 °F - 18.0 °F 88% 30.25 in 10.0 mi Calm Calm - N/A   Clear
11:54 PM 19.0 °F - 15.1 °F 85% 30.24 in 10.0 mi Calm Calm - N/A   Clear